Total_Precipitation_Accumulation
0.05 0.08 0.09 0.12 0.14 0.17 0.22 0.26 0.33 0.42 0.41 0.48 0.58 0.82 0.92 1.09 1.18 1.33 1.47 1.51 1.47 1.57 1.78 2.13 2.59 3.28 3.75 3.92 4.00 4.16 4.17 4.25 4.29 4.27 4.28 4.45 4.65 4.70 4.67 4.77 4.80 4.63 4.55 4.70
0.09 0.10 0.08 0.10 0.15 0.17 0.24 0.29 0.35 0.42 0.39 0.45 0.63 0.84 0.97 1.12 1.20 1.28 1.34 1.38 1.37 1.40 1.67 2.12 2.57 3.04 3.33 3.68 3.88 4.09 4.12 4.31 4.56 4.95 5.46 5.73 5.84 5.75 5.59 5.46 5.37 5.22 5.10 5.17
0.11 0.08 0.06 0.07 0.14 0.18 0.25 0.27 0.36 0.46 0.50 0.51 0.70 1.08 1.13 1.22 1.36 1.48 1.49 1.56 1.62 1.49 1.65 1.99 2.20 2.59 2.90 3.28 3.62 3.89 4.23 4.65 5.16 5.83 6.62 6.91 6.66 6.25 6.05 5.72 5.64 5.42 5.19 5.15
0.07 0.06 0.07 0.07 0.10 0.15 0.22 0.19 0.26 0.34 0.49 0.61 0.60 1.16 1.44 1.54 1.69 1.81 1.63 1.57 1.63 1.62 1.61 1.77 2.03 2.32 2.52 2.90 3.37 3.83 4.40 5.02 5.68 6.30 6.77 6.96 6.84 6.55 6.24 5.79 5.39 5.02 4.71 4.52
0.08 0.08 0.12 0.15 0.10 0.14 0.15 0.15 0.20 0.25 0.36 0.54 0.55 0.91 1.51 1.75 1.88 1.91 1.73 1.66 1.61 1.57 1.47 1.61 1.82 2.07 2.38 2.82 3.31 3.80 4.31 5.05 5.55 6.10 6.53 6.76 6.75 6.62 6.20 5.51 4.85 4.44 4.10 3.84
0.07 0.09 0.13 0.12 0.09 0.11 0.14 0.16 0.23 0.30 0.40 0.64 0.54 0.83 1.58 1.99 2.07 1.94 1.84 1.79 1.64 1.60 1.63 1.63 1.71 1.89 2.33 2.74 3.26 3.64 3.98 4.71 5.41 5.92 6.28 6.60 6.55 6.31 5.67 4.95 4.38 4.01 3.70 3.44
0.18 0.15 0.13 0.11 0.12 0.13 0.16 0.29 0.58 0.74 0.81 0.76 0.54 0.88 1.60 1.77 1.76 1.75 1.62 1.55 1.60 1.57 1.55 1.56 1.77 1.90 2.37 2.77 3.09 3.38 3.64 4.06 4.59 5.06 5.39 5.61 5.66 5.42 4.96 4.51 4.03 3.67 3.42 3.15
0.30 0.25 0.15 0.10 0.10 0.12 0.16 0.28 0.67 0.93 0.95 0.88 0.86 1.47 1.97 1.71 1.64 1.67 1.61 1.44 1.43 1.52 1.50 1.50 1.74 1.97 2.12 2.34 2.60 2.91 3.14 3.41 3.69 3.95 4.22 4.21 4.22 4.19 3.98 3.60 3.16 2.88 2.60 2.43
0.32 0.28 0.15 0.10 0.07 0.09 0.17 0.23 0.29 0.51 0.57 0.87 1.27 1.68 2.06 1.93 1.85 1.64 1.53 1.46 1.45 1.43 1.45 1.54 1.73 1.87 1.95 2.08 2.27 2.45 2.55 2.75 2.83 2.81 2.82 2.90 2.90 2.94 2.90 2.75 2.47 2.15 1.89 1.75
0.27 0.26 0.18 0.13 0.10 0.11 0.16 0.22 0.32 0.62 0.89 1.15 1.42 2.01 2.48 2.40 2.17 1.88 1.61 1.46 1.32 1.33 1.40 1.52 1.65 1.82 1.93 1.94 2.09 2.19 2.14 2.17 2.22 2.26 2.19 2.12 2.19 2.25 2.26 2.21 2.05 1.86 1.67 1.51
0.29 0.31 0.23 0.17 0.19 0.20 0.20 0.25 0.37 0.59 0.73 1.23 1.71 2.37 2.34 2.40 2.25 2.09 1.99 1.65 1.42 1.41 1.44 1.57 1.57 1.61 1.63 1.68 1.72 1.79 1.79 1.81 1.81 1.80 1.83 1.82 1.79 1.77 1.78 1.81 1.77 1.66 1.55 1.43
0.31 0.33 0.38 0.28 0.24 0.21 0.22 0.27 0.37 0.71 0.86 1.00 1.50 2.34 1.96 2.27 2.38 2.24 2.09 1.77 1.62 1.58 1.60 1.65 1.60 1.48 1.49 1.60 1.65 1.64 1.63 1.57 1.59 1.62 1.67 1.73 1.59 1.51 1.53 1.54 1.52 1.41 1.38 1.33
0.29 0.42 0.65 0.72 0.62 0.39 0.32 0.28 0.32 0.42 0.70 0.95 1.42 2.26 2.07 2.23 2.40 2.17 1.93 1.78 1.73 1.75 1.79 1.84 1.75 1.58 1.52 1.55 1.55 1.43 1.37 1.36 1.27 1.28 1.40 1.51 1.39 1.30 1.31 1.30 1.27 1.27 1.24 1.21
0.24 0.48 0.89 1.31 1.10 0.62 0.46 0.34 0.31 0.41 0.73 0.93 1.24 1.75 1.90 2.03 2.06 1.95 1.87 1.79 1.78 1.76 1.74 1.83 1.81 1.63 1.59 1.49 1.42 1.25 1.21 1.22 1.19 1.17 1.19 1.25 1.27 1.24 1.19 1.18 1.15 1.09 1.05 1.03
0.28 0.50 0.59 0.55 0.43 0.42 0.43 0.38 0.37 0.46 0.58 0.91 1.21 1.52 1.77 2.01 2.09 2.07 1.93 1.81 1.75 1.73 1.78 1.89 1.82 1.60 1.57 1.53 1.46 1.25 1.15 1.16 1.15 1.19 1.20 1.18 1.18 1.10 1.10 1.13 1.10 0.98 0.94 0.88
0.30 0.41 0.48 0.50 0.40 0.41 0.48 0.48 0.47 0.54 0.65 0.86 1.17 1.59 1.87 2.16 2.15 2.02 1.86 1.79 1.86 1.86 1.83 1.78 1.69 1.61 1.58 1.55 1.49 1.31 1.16 1.11 1.13 1.22 1.24 1.20 1.18 1.11 1.08 1.10 1.10 1.04 1.01 0.97
0.37 0.52 0.76 0.70 0.49 0.64 0.99 0.83 0.78 0.82 0.85 1.04 1.33 1.59 1.75 1.97 2.07 2.03 1.89 1.92 2.05 2.01 2.05 1.97 1.82 1.75 1.75 1.66 1.48 1.38 1.23 1.16 1.16 1.19 1.16 1.21 1.21 1.13 1.05 1.00 1.10 1.10 1.09 1.01
0.46 0.66 0.89 0.85 0.95 1.48 1.36 0.83 0.82 0.95 0.90 0.90 1.06 1.20 1.38 1.59 1.68 1.71 1.78 1.90 2.04 2.03 2.03 1.97 1.88 1.86 1.79 1.67 1.56 1.46 1.28 1.15 1.11 1.11 1.06 1.08 1.11 1.12 1.06 1.05 1.08 1.10 1.14 1.11
0.40 0.73 1.10 1.17 1.40 1.57 1.36 0.93 0.81 1.12 1.35 0.97 0.93 1.01 1.12 1.14 1.40 1.70 1.64 1.62 1.78 1.85 1.85 1.81 1.79 1.83 1.75 1.61 1.50 1.42 1.28 1.12 1.01 0.99 1.00 0.95 0.93 0.94 0.96 0.95 1.03 1.14 1.17 1.10
0.42 0.70 1.17 1.35 1.73 1.95 1.56 0.83 0.66 1.13 1.88 1.22 1.07 1.07 1.22 1.31 1.65 1.70 1.40 1.38 1.51 1.61 1.64 1.57 1.51 1.54 1.60 1.51 1.41 1.36 1.31 1.17 0.99 0.87 0.81 0.81 0.86 0.86 0.88 0.93 1.01 1.03 1.08 1.06
0.83 0.97 1.19 1.43 1.90 1.88 1.08 0.66 0.78 1.69 1.91 1.21 1.16 1.21 1.29 1.39 1.48 1.33 1.18 1.31 1.46 1.52 1.53 1.41 1.32 1.32 1.33 1.27 1.19 1.18 1.14 1.03 0.81 0.71 0.68 0.71 0.74 0.75 0.76 0.88 0.93 0.93 0.90 0.93
1.24 1.45 1.54 1.70 2.07 2.07 0.99 0.81 1.29 1.56 1.08 1.04 1.15 1.15 1.17 1.05 0.96 1.05 1.15 1.32 1.41 1.45 1.42 1.30 1.24 1.14 1.08 1.03 1.05 1.05 0.94 0.79 0.67 0.63 0.62 0.63 0.65 0.58 0.59 0.80 0.85 0.83 0.88 0.84
1.30 1.59 1.75 1.93 2.05 1.58 1.03 1.07 1.06 1.02 1.02 0.97 1.03 0.98 0.96 0.95 0.91 0.98 1.12 1.23 1.35 1.32 1.24 1.12 1.01 0.91 0.84 0.91 0.98 0.93 0.78 0.65 0.59 0.64 0.68 0.62 0.56 0.58 0.56 0.62 0.68 0.73 0.80 0.75
1.34 1.27 1.41 1.61 1.62 1.33 1.13 1.04 0.93 0.87 0.89 0.85 0.88 0.92 0.96 0.99 0.99 1.03 1.08 1.09 1.17 1.16 1.06 0.94 0.91 0.84 0.82 0.81 0.76 0.71 0.56 0.51 0.57 0.66 0.69 0.65 0.59 0.57 0.52 0.51 0.47 0.49 0.55 0.58
1.25 1.41 1.64 1.73 1.57 1.37 1.22 0.99 0.90 0.89 0.90 0.90 0.95 0.92 0.91 0.95 1.01 1.04 1.02 0.97 0.96 0.96 0.89 0.81 0.86 0.83 0.78 0.69 0.64 0.57 0.51 0.51 0.63 0.66 0.62 0.59 0.54 0.51 0.50 0.44 0.39 0.37 0.39 0.44
0.98 1.33 1.75 1.80 1.42 1.33 1.27 1.11 1.00 1.07 1.15 1.09 0.99 0.93 0.87 0.84 0.83 0.80 0.78 0.74 0.76 0.79 0.74 0.72 0.76 0.75 0.68 0.62 0.60 0.53 0.46 0.44 0.55 0.59 0.59 0.53 0.50 0.47 0.42 0.40 0.39 0.33 0.29 0.30